When you browse on this site, cookies collect data to enhance your experience and personalize the content and advertising you see.
Visit our Privacy Policy to learn more. By continuing to use the site, you agree to this use of cookies and data.
  • Em Portugal
  • Lista de países
  • Para 7 dias
  • Temperatura da água
  • Mapa do tempo
  • Widgets de tempo
  • user-avatar
    Iniciar Sessão

    Previsão horária em Etchmiadzin

    Hoje, 4 Junho, Quinta-feira

    Tempo Temperatura Precipitação Vento Pressão Humidade
    00:00 +19°C° 0.1 mm 1 m/s 683 mmHg 59%
    01:00 +19°C° 0 mm 1 m/s 683 mmHg 60%
    02:00 +18°C° 0 mm 1 m/s 683 mmHg 61%
    03:00 +18°C° 0 mm 1 m/s 683 mmHg 62%
    04:00 +19°C° 0 mm 1 m/s 683 mmHg 59%
    05:00 +20°C° 0 mm 1 m/s 683 mmHg 57%
    06:00 +20°C° 0 mm 1 m/s 684 mmHg 55%
    07:00 +22°C° 0 mm 1 m/s 684 mmHg 48%
    08:00 +24°C° 0 mm 2 m/s 684 mmHg 40%
    09:00 +26°C° 0 mm 2 m/s 685 mmHg 33%
    10:00 +27°C° 0 mm 1 m/s 685 mmHg 31%
    11:00 +29°C° 0 mm 1 m/s 685 mmHg 28%
    12:00 +30°C° 0 mm 1 m/s 685 mmHg 26%
    13:00 +30°C° 0 mm 1 m/s 685 mmHg 25%
    14:00 +31°C° 0 mm 1 m/s 685 mmHg 25%
    15:00 +31°C° 0 mm 1 m/s 685 mmHg 24%
    16:00 +30°C° 0 mm 3 m/s 685 mmHg 26%
    17:00 +29°C° 0 mm 4 m/s 685 mmHg 28%
    18:00 +29°C° 0 mm 6 m/s 685 mmHg 29%
    19:00 +27°C° 0 mm 5 m/s 685 mmHg 31%
    20:00 +25°C° 0 mm 4 m/s 686 mmHg 32%
    21:00 +22°C° 0 mm 3 m/s 686 mmHg 33%
    22:00 +21°C° 0 mm 3 m/s 686 mmHg 35%
    23:00 +20°C° 0 mm 2 m/s 686 mmHg 37%

    Amanhã, 5 Junho, Sexta-feira

    Tempo Temperatura Precipitação Vento Pressão Humidade
    00:00 +19°C° 0 mm 2 m/s 687 mmHg 40%
    01:00 +18°C° 0 mm 2 m/s 687 mmHg 41%
    02:00 +18°C° 0 mm 2 m/s 687 mmHg 43%
    03:00 +17°C° 0 mm 2 m/s 687 mmHg 45%
    04:00 +19°C° 0 mm 1 m/s 687 mmHg 45%
    05:00 +20°C° 0 mm 1 m/s 687 mmHg 46%
    06:00 +20°C° 0 mm 1 m/s 688 mmHg 47%
    07:00 +22°C° 0 mm 1 m/s 688 mmHg 42%
    08:00 +24°C° 0 mm 1 m/s 688 mmHg 36%
    09:00 +26°C° 0 mm 1 m/s 688 mmHg 31%
    10:00 +27°C° 0 mm 1 m/s 688 mmHg 29%
    11:00 +28°C° 0 mm 2 m/s 688 mmHg 26%
    12:00 +29°C° 0 mm 2 m/s 688 mmHg 24%
    13:00 +29°C° 0 mm 2 m/s 688 mmHg 25%
    14:00 +29°C° 0 mm 3 m/s 687 mmHg 25%
    15:00 +29°C° 0 mm 3 m/s 687 mmHg 26%
    16:00 +29°C° 0 mm 3 m/s 687 mmHg 28%
    17:00 +28°C° 0 mm 3 m/s 687 mmHg 31%
    18:00 +28°C° 0 mm 2 m/s 687 mmHg 34%
    19:00 +26°C° 0 mm 2 m/s 688 mmHg 36%
    20:00 +24°C° 0 mm 2 m/s 688 mmHg 39%
    21:00 +21°C° 0 mm 2 m/s 688 mmHg 42%
    22:00 +20°C° 0 mm 2 m/s 688 mmHg 43%
    23:00 +19°C° 0 mm 2 m/s 688 mmHg 45%

    Depois de amanhã, 6 Junho, Sábado

    Tempo Temperatura Precipitação Vento Pressão Humidade
    00:00 +19°C° 0 mm 2 m/s 688 mmHg 46%
    01:00 +18°C° 0 mm 2 m/s 688 mmHg 48%
    02:00 +17°C° 0 mm 2 m/s 688 mmHg 50%
    03:00 +17°C° 0 mm 2 m/s 688 mmHg 51%
    04:00 +17°C° 0 mm 2 m/s 688 mmHg 51%
    05:00 +18°C° 0 mm 2 m/s 688 mmHg 51%
    06:00 +19°C° 0 mm 2 m/s 689 mmHg 51%
    07:00 +21°C° 0 mm 2 m/s 689 mmHg 46%
    08:00 +24°C° 0 mm 1 m/s 689 mmHg 42%
    09:00 +26°C° 0 mm 1 m/s 689 mmHg 37%
    10:00 +27°C° 0 mm 1 m/s 689 mmHg 34%
    11:00 +28°C° 0 mm 1 m/s 689 mmHg 30%
    12:00 +29°C° 0 mm 1 m/s 689 mmHg 27%
    13:00 +30°C° 0.1 mm 1 m/s 689 mmHg 25%
    14:00 +30°C° 0.1 mm 2 m/s 689 mmHg 23%
    15:00 +31°C° 0.1 mm 2 m/s 689 mmHg 21%
    16:00 +30°C° 0 mm 3 m/s 689 mmHg 26%
    17:00 +29°C° 0 mm 4 m/s 689 mmHg 30%
    18:00 +28°C° 0 mm 6 m/s 689 mmHg 34%
    19:00 +26°C° 0 mm 5 m/s 689 mmHg 40%
    20:00 +22°C° 0 mm 4 m/s 689 mmHg 45%
    21:00 +20°C° 0 mm 3 m/s 689 mmHg 50%
    22:00 +19°C° 0 mm 2 m/s 689 mmHg 53%
    23:00 +19°C° 0 mm 2 m/s 689 mmHg 56%

    7 Junho, Domingo

    Tempo Temperatura Precipitação Vento Pressão Humidade
    00:00 +19°C° 0 mm 1 m/s 689 mmHg 58%
    01:00 +18°C° 0 mm 1 m/s 688 mmHg 59%
    02:00 +18°C° 0 mm 1 m/s 688 mmHg 60%
    03:00 +16°C° 0 mm 1 m/s 688 mmHg 61%
    04:00 +18°C° 0 mm 1 m/s 688 mmHg 60%
    05:00 +19°C° 0 mm 1 m/s 688 mmHg 58%
    06:00 +20°C° 0 mm 1 m/s 689 mmHg 57%
    07:00 +21°C° 0 mm 1 m/s 689 mmHg 52%
    08:00 +23°C° 0 mm 1 m/s 689 mmHg 47%
    09:00 +25°C° 0 mm 1 m/s 689 mmHg 42%
    10:00 +26°C° 0 mm 1 m/s 689 mmHg 39%
    11:00 +28°C° 0 mm 1 m/s 689 mmHg 35%
    12:00 +29°C° 0 mm 1 m/s 689 mmHg 32%
    13:00 +29°C° 0 mm 1 m/s 689 mmHg 31%
    14:00 +30°C° 0 mm 1 m/s 689 mmHg 29%
    15:00 +31°C° 0 mm 1 m/s 689 mmHg 28%
    16:00 +30°C° 0 mm 2 m/s 689 mmHg 30%
    17:00 +30°C° 0 mm 2 m/s 689 mmHg 32%
    18:00 +30°C° 0 mm 2 m/s 688 mmHg 35%
    19:00 +27°C° 0 mm 2 m/s 688 mmHg 41%
    20:00 +25°C° 0 mm 2 m/s 689 mmHg 47%
    21:00 +23°C° 0 mm 2 m/s 689 mmHg 53%
    22:00 +21°C° 0 mm 2 m/s 688 mmHg 54%
    23:00 +20°C° 0 mm 2 m/s 688 mmHg 54%

    8 Junho, Segunda-feira

    Tempo Temperatura Precipitação Vento Pressão Humidade
    00:00 +20°C° 0 mm 2 m/s 688 mmHg 55%
    01:00 +19°C° 0 mm 2 m/s 688 mmHg 57%
    02:00 +19°C° 0 mm 2 m/s 688 mmHg 58%
    03:00 +19°C° 0 mm 1 m/s 688 mmHg 60%
    04:00 +20°C° 0 mm 1 m/s 688 mmHg 59%
    05:00 +21°C° 0 mm 1 m/s 688 mmHg 58%
    06:00 +21°C° 0 mm 1 m/s 688 mmHg 56%
    07:00 +23°C° 0 mm 1 m/s 688 mmHg 52%
    08:00 +25°C° 0 mm 1 m/s 688 mmHg 47%
    09:00 +26°C° 0 mm 2 m/s 688 mmHg 42%
    10:00 +28°C° 0 mm 2 m/s 688 mmHg 38%
    11:00 +29°C° 0 mm 2 m/s 688 mmHg 35%
    12:00 +30°C° 0 mm 2 m/s 688 mmHg 31%
    13:00 +31°C° 0 mm 2 m/s 688 mmHg 29%
    14:00 +32°C° 0 mm 2 m/s 688 mmHg 26%
    15:00 +32°C° 0 mm 2 m/s 688 mmHg 23%
    16:00 +32°C° 0 mm 2 m/s 687 mmHg 25%
    17:00 +32°C° 0 mm 2 m/s 687 mmHg 27%
    18:00 +31°C° 0 mm 2 m/s 687 mmHg 29%
    19:00 +29°C° 0 mm 2 m/s 687 mmHg 34%
    20:00 +26°C° 0 mm 3 m/s 687 mmHg 40%
    21:00 +24°C° 0 mm 3 m/s 687 mmHg 45%
    22:00 +22°C° 0 mm 3 m/s 687 mmHg 47%
    23:00 +21°C° 0 mm 2 m/s 687 mmHg 49%

    9 Junho, Terça-feira

    Tempo Temperatura Precipitação Vento Pressão Humidade
    00:00 +21°C° 0 mm 2 m/s 687 mmHg 51%
    01:00 +20°C° 0 mm 2 m/s 686 mmHg 54%
    02:00 +19°C° 0 mm 2 m/s 686 mmHg 57%
    03:00 +19°C° 0 mm 2 m/s 686 mmHg 60%
    04:00 +20°C° 0 mm 1 m/s 686 mmHg 60%
    05:00 +21°C° 0 mm 1 m/s 687 mmHg 59%
    06:00 +22°C° 0 mm 1 m/s 687 mmHg 59%
    07:00 +24°C° 0 mm 1 m/s 687 mmHg 53%
    08:00 +26°C° 0 mm 1 m/s 687 mmHg 46%
    09:00 +27°C° 0 mm 2 m/s 687 mmHg 40%
    10:00 +29°C° 0 mm 2 m/s 687 mmHg 37%
    11:00 +30°C° 0 mm 2 m/s 687 mmHg 33%
    12:00 +31°C° 0 mm 2 m/s 688 mmHg 29%
    13:00 +32°C° 0 mm 2 m/s 687 mmHg 26%
    14:00 +34°C° 0 mm 2 m/s 687 mmHg 23%
    15:00 +34°C° 0 mm 2 m/s 687 mmHg 20%
    16:00 +34°C° 0 mm 2 m/s 687 mmHg 23%
    17:00 +33°C° 0 mm 3 m/s 687 mmHg 26%
    18:00 +31°C° 0 mm 3 m/s 687 mmHg 29%
    19:00 +29°C° 0 mm 3 m/s 687 mmHg 34%
    20:00 +27°C° 0 mm 4 m/s 687 mmHg 39%
    21:00 +23°C° 0 mm 4 m/s 687 mmHg 45%
    22:00 +22°C° 0 mm 3 m/s 687 mmHg 49%
    23:00 +21°C° 0 mm 2 m/s 686 mmHg 53%
    Mostrar mais